Regional Weather Roundup
Issued by NWS

Home | Current Version | Previous Version | Graphics & Text | Print | Product List | Glossary On
Versions: 1 2 3 4 5 6 7 8 9 10 11 12 13 14 15 16 17 18 19 20 21 22 23 24 25 26 27 28 29 30 31 32 33 34 35 36 37 38 39 40 41 42 43 44 45 46 47 48 49 50
000
ASUS45 KSLC 200010
RWRUT

UTAH REGIONAL WEATHER ROUNDUP
NATIONAL WEATHER SERVICE SALT LAKE CITY UT
600 PM MDT FRI SEP 19 2014

UTZ001>011-023>025-200100-

NORTHERN UTAH

CITY           SKY/WX    TMP DP  RH WIND       PRES   REMARKS
HILL AFB       SUNNY     81  42  25 N9        30.06S
LOGAN          SUNNY     80  49  33 N5        30.04S
OGDEN          SUNNY     81  43  26 N9        30.03S
PROVO AIRPORT  NOT AVBL
SALT LAKE CITY MOSUNNY   81  49  32 NW10      30.01S
VERNAL         CLOUDY    78  50  37 CALM      30.03F
WENDOVER       SUNNY     82  43  24 E7        30.03S
HEBER CITY     MOSUNNY   81  46  30 N7        30.07S
WEST JORDAN    SUNNY     79  50  36 NW9G16    30.05S

$$

UTZ012>022-026-027-200100-

SOUTHERN UTAH

CITY           SKY/WX    TMP DP  RH WIND       PRES   REMARKS
BRYCE CANYON   PTSUNNY   73  44  35 S6        30.21S
CEDAR CITY     MOSUNNY   81  40  23 VRB3      30.05S
MILFORD        SUNNY     86  43  22 N9        30.00F
MOAB/CYNLANDS  SUNNY     90  36  14 CALM      29.92S
PRICE          PTSUNNY   80  43  26 NW9       30.08R
ST GEORGE      PTCLDY    93  50  22 W9        29.87S HX  90

$$

REGIONAL REPORTS     COLORADO/ARIZONA

CITY           SKY/WX    TMP DP  RH WIND       PRES   REMARKS
CRAIG, CO      MOSUNNY   77  43  29 NW10      30.09R
GRAND JUNCTION MOSUNNY   86  40  19 W9        29.96S
RIFLE          MOSUNNY   83  42  23 W9        30.01R
MONTROSE       MOSUNNY   82  44  26 N6        30.04S
CORTEZ         CLOUDY    84  43  23 W10       30.04S
PAGE, AZ       MOSUNNY   90  46  21 CALM      29.94S
GRAND CANYON   PTSUNNY   74  52  46 CALM      30.16R
KINGMAN        SUNNY     88  42  20 SW13      29.93S
FLAGSTAFF      MOSUNNY   71  54  54 W5        30.19R

$$

REGIONAL REPORTS    NEVADA/IDAHO/WYOMING

CITY           SKY/WX    TMP DP  RH WIND       PRES   REMARKS
LAS VEGAS, NV  MOSUNNY   96  30   9 S10       29.77S HX  90
ELY            PTSUNNY   80  32  17 S7        30.10S
ELKO           SUNNY     84  37  18 N5        30.05S
POCATELLO, ID  SUNNY     78  40  25 W13       30.06S
BURLEY         SUNNY     74  47  38 W12       30.04F
EVANSTON, WY   SUNNY     74  39  28 NW9       30.19R
ROCK SPRINGS   SUNNY     74  32  21 W15G25    30.15R

$$



USA.gov is the U.S. government's official web portal to all federal, state and local government web resources and services.